Vertical_Velocity
1 1 1 1 1 1 0 -1 0 1 1 0 -1 -2 -2 -2 -2 -1 -0 1 0 -0 -1 -2 -2 -3 -4 -3 -2 -2 -2 -3 -2 -2 -1 -2 -1 -1 1 3 3 2 -0 -2 -2 -2 -2 -1 0 -0 -1 -1 -0 1 2 3 3 3 3 3 2 1 1 1 -0 -1 -0 1 2
-0 0 1 1 2 1 0 -1 -0 0 1 1 1 -1 -2 -1 -1 -2 -1 -0 1 1 1 -0 -0 -1 -2 -3 -2 -2 -2 -3 -3 -3 -3 -3 -2 1 3 4 2 1 -1 -2 -1 -1 -0 -0 0 -1 -2 -3 -2 -1 0 2 3 3 2 2 3 3 2 1 -1 -1 -1 0 1
-0 -0 -0 1 1 1 -0 -1 -1 -0 0 0 0 0 -0 -0 -1 -1 -1 -1 1 2 2 1 0 0 -0 -1 -2 -2 -2 -2 -2 -3 -3 -3 -1 2 4 5 1 -1 -1 -1 -0 1 1 1 1 -1 -2 -3 -2 -2 -2 -1 2 2 2 1 3 4 4 3 1 1 2 2 1
0 0 0 0 0 1 1 0 -1 -1 -1 -0 -1 -1 -0 0 0 -0 -1 -2 -1 0 2 2 1 1 1 1 -0 -1 -1 -1 -1 -2 -2 -2 0 3 5 4 1 -2 -2 -1 -0 0 1 2 1 -0 -1 -1 -1 -2 -2 -2 -0 1 1 0 2 4 6 5 4 4 3 2 1
-0 1 1 1 1 1 1 1 -0 -0 -1 -1 -1 -1 -1 -0 -0 -1 -2 -3 -2 -0 1 2 2 2 2 3 1 0 -1 -1 -1 -2 -2 -2 1 4 5 4 1 -1 -2 -1 0 1 1 1 1 0 -0 -0 -0 -1 -0 -0 -0 -0 -1 -1 -0 2 4 7 8 7 4 0 -1
-1 -1 0 1 1 1 1 1 1 0 -0 -1 -2 -1 -0 1 -0 -1 -1 -2 -2 -1 -1 -0 1 1 1 1 1 0 -0 -1 -1 -1 -2 -1 2 4 5 3 0 -1 -2 -1 0 1 1 1 -0 -1 0 1 -1 -1 0 1 -0 -1 -2 -2 -2 -1 2 8 14 15 12 3 -1
-1 -1 -1 -0 0 0 1 1 0 -0 -1 -1 -2 -1 -0 1 0 0 -0 -1 -2 -3 -3 -3 -1 -1 -1 -1 -1 -1 -0 0 -0 -0 -0 -1 3 5 6 3 -1 -2 -1 1 0 0 1 0 -1 -1 -1 1 -1 -2 -1 1 0 -0 -1 -2 -2 -2 1 6 14 21 23 18 9
0 0 -0 -0 -0 -0 -0 -0 -1 -1 -2 -2 -2 -1 -1 -0 -0 -1 -1 -2 -2 -3 -3 -3 -2 -1 -1 -1 -1 -1 -0 -0 -0 -0 -1 -1 4 7 7 3 -1 -2 -1 2 1 1 0 -1 -1 -1 -0 -0 -2 -2 -1 0 0 1 0 -0 -2 -1 -0 2 5 11 16 20 19
-0 -0 -0 -0 -0 -0 -0 -1 -1 -2 -2 -2 -1 -1 -1 -0 -1 -1 -1 -2 -2 -3 -3 -3 -2 -2 -1 -1 -1 -1 -1 -1 -1 -1 -1 -1 6 10 9 2 -2 -2 -1 1 1 0 -0 -1 -0 0 1 1 0 -0 -1 0 -0 -0 0 1 0 -0 -0 1 2 2 3 5 8
-0 -1 -1 -1 -1 -1 -1 -1 -1 -2 -2 -2 -1 -1 -1 -1 -1 -1 -0 -0 -2 -3 -2 -2 -2 -2 -2 -2 -2 -2 -2 -1 -1 -2 -2 0 9 12 9 3 -1 -2 -1 0 0 -0 -1 1 1 1 1 2 2 1 1 1 0 -0 0 1 1 1 0 1 2 2 2 1 1
0 -0 -0 -1 -1 -1 -2 -2 -2 -2 -2 -1 -1 -1 -1 -1 -1 -0 0 0 -1 -2 -2 -1 -1 -1 -2 -2 -2 -2 -2 -1 -2 -3 -2 3 10 11 8 3 1 1 1 2 2 1 1 2 2 2 2 3 2 1 1 0 0 0 0 1 2 1 0 -0 1 1 1 1 1
-0 -0 -0 -1 -1 -1 -2 -2 -2 -2 -2 -1 -2 -1 -1 -1 -0 -0 -0 -1 -1 -1 -2 -2 -1 -1 -1 -2 -2 -2 -2 -2 -2 -3 -1 5 7 6 4 2 1 2 2 3 4 4 4 4 2 2 2 3 2 1 1 1 1 0 0 1 2 2 1 -0 -0 -0 0 0 0
-0 -1 -1 -1 -1 -1 -1 -2 -2 -2 -2 -1 -1 -1 -1 -0 0 -0 -1 -1 -1 -2 -2 -2 -1 -0 -0 -1 -2 -2 -2 -2 -3 -2 0 4 3 2 1 -0 -0 0 1 3 5 7 7 5 2 2 2 3 1 1 2 2 1 1 1 1 2 2 2 1 0 -0 -0 -0 -0
-0 -1 -1 -1 -1 -1 -1 -2 -2 -2 -1 -1 -1 -0 0 0 0 -0 -1 -2 -2 -1 -1 -2 -1 -0 0 0 -1 -1 -1 -1 -2 -1 0 2 2 1 0 -2 -2 -2 0 2 4 6 7 6 2 2 3 4 1 1 1 2 2 2 2 2 2 2 3 3 2 1 0 0 0
-1 -1 -1 -1 -1 -1 -1 -2 -2 -1 -1 -0 -1 0 1 1 0 -0 -1 -2 -1 -1 -0 -1 -1 -1 -0 1 0 -0 -1 -1 -1 -1 0 1 1 1 0 -2 -4 -3 -1 1 2 4 6 8 4 2 2 4 1 0 0 1 1 2 2 3 3 3 3 3 3 3 2 2 1
-1 -1 -1 -1 -1 -1 -1 -1 -1 -1 -0 -0 -0 1 1 1 0 -1 -2 -2 -1 -1 -0 0 0 -1 -1 -0 -0 -0 -1 -1 -1 -0 0 0 0 0 -1 -3 -5 -5 -3 -1 -1 1 4 8 6 4 4 5 2 1 0 1 1 2 2 3 3 3 4 4 5 4 4 3 3
-1 -1 -1 -1 -1 -1 -1 -1 -0 -0 -1 -1 0 2 2 1 -2 -2 -2 -0 -0 -1 -0 1 1 1 -1 -1 -1 -1 -1 -2 -1 0 1 1 1 0 -1 -3 -5 -5 -4 -2 -2 -1 1 5 4 6 8 8 4 1 1 1 1 2 2 2 3 3 4 5 6 6 5 4 3
-1 -1 -1 -1 -1 -1 -1 -1 -0 -0 -1 -1 1 2 2 -0 -3 -3 -1 0 1 0 -0 -0 1 1 0 -1 -1 -0 -0 -1 -0 1 2 2 2 1 -0 -3 -5 -5 -4 -2 -1 0 1 3 1 7 13 14 6 2 1 1 1 2 2 2 2 2 3 3 5 6 6 5 4
-2 -2 -1 -1 -1 -2 -2 -2 -1 -1 -1 -1 1 2 1 -2 -2 -2 -1 -1 0 1 1 -0 0 0 1 1 1 1 1 1 1 1 2 2 2 1 -0 -4 -6 -6 -5 -3 -1 0 1 2 -2 8 18 19 7 2 1 0 1 1 2 2 2 2 1 2 4 6 7 6 5
-1 -2 -2 -2 -2 -2 -2 -2 -1 -1 -2 -2 -0 0 -0 -3 -2 -1 -1 -2 -1 0 1 1 0 -0 -0 1 1 1 1 2 2 1 1 1 1 1 -1 -4 -7 -7 -5 -3 -1 -0 0 -0 -2 10 23 20 7 1 -1 -1 -1 0 1 1 1 1 1 1 3 5 7 7 6
-1 -1 -2 -2 -2 -2 -2 -2 -1 -2 -2 -3 -1 -1 -1 -2 -1 -1 -1 -1 -1 0 1 1 0 -1 -1 -0 -0 -0 0 1 2 1 1 0 1 0 -1 -3 -6 -6 -5 -3 -1 -1 -1 -1 1 15 24 15 5 1 -1 -2 -1 -1 0 0 1 1 1 1 2 4 6 7 7
-1 -1 -2 -2 -2 -2 -2 -2 -2 -2 -2 -2 -2 -1 -1 -1 -1 -1 -1 -1 -1 0 1 1 -1 -1 -1 -1 -0 -0 0 1 1 1 1 1 0 -0 -1 -3 -4 -6 -5 -3 -3 -5 -6 -5 6 19 23 8 2 -0 -0 -1 -1 -1 -1 -1 -0 0 0 1 1 3 5 7 7
-1 -2 -2 -3 -2 -2 -2 -2 -1 -1 -2 -2 -2 -1 -1 -0 -1 -1 -1 -1 -1 -0 0 -0 -1 -2 -1 -1 0 1 0 -1 -1 -0 0 1 0 -1 -2 -2 -4 -5 -4 -3 -5 -7 -6 -2 15 21 16 2 0 -0 -0 -1 -1 -2 -3 -3 -2 -1 -0 0 0 2 3 6 6
-1 -2 -2 -3 -3 -3 -2 -2 -1 -2 -2 -2 -2 -1 -1 -1 -1 -2 -2 -2 -2 -1 -1 -1 -1 -2 -2 -2 -0 1 1 -1 -2 -2 -2 -0 0 -1 -2 -3 -4 -4 -4 -2 -4 -1 7 20 32 23 7 -2 -1 0 0 0 -1 -2 -3 -3 -2 -2 -1 0 0 0 2 4 4
-1 -2 -2 -3 -3 -3 -2 -2 -1 -2 -2 -2 -1 -1 -1 -1 -2 -2 -2 -3 -2 -2 -2 -2 -2 -2 -3 -3 -2 -0 1 0 -1 -1 -2 -2 -2 -2 -2 -3 -5 -5 -5 -3 -4 1 13 37 42 24 2 -3 -1 -0 0 1 -0 -1 -2 -2 -1 -1 -2 -1 -1 -1 -0 2 3
-2 -2 -3 -2 -3 -3 -2 -1 -1 -1 -1 -1 -2 -1 -1 -1 -2 -2 -2 -3 -3 -3 -3 -4 -3 -3 -3 -3 -3 -2 -1 -1 -0 -0 -1 -2 -4 -4 -4 -3 -4 -6 -7 -4 -4 -3 7 36 42 23 1 -4 -2 -0 1 1 0 -1 -1 -0 -0 -1 -1 -2 -2 -2 -2 -0 2
-2 -3 -2 -2 -2 -2 -1 -0 -1 -1 -1 -2 -2 -2 -1 -1 -2 -2 -2 -2 -3 -3 -4 -4 -4 -3 -3 -3 -3 -2 -1 -1 -1 -0 0 0 -2 -4 -4 -4 -4 -6 -7 -3 -2 -3 5 28 31 19 3 -3 -1 1 1 1 1 -1 -2 -1 1 1 0 -2 -2 -3 -3 -2 0
-3 -2 -2 -2 -2 -1 -1 -1 -1 -1 -2 -2 -1 -1 -1 -2 -2 -2 -2 -2 -2 -3 -4 -5 -4 -3 -3 -3 -2 -1 -0 -1 -1 -1 0 0 -0 -2 -3 -4 -6 -7 -5 -0 1 0 5 21 19 12 4 -0 -0 1 1 1 0 -1 -1 -1 1 2 2 -1 -2 -3 -3 -2 -1
-2 -2 -2 -2 -2 -1 -1 -1 -1 -2 -2 -2 -1 -1 -1 -2 -2 -2 -2 -2 -3 -3 -3 -4 -4 -3 -2 -2 -1 -0 -0 -1 -1 -0 -0 -1 -1 -2 -3 -4 -7 -8 -5 2 2 1 4 17 15 10 4 2 1 1 1 1 1 -0 -0 0 2 4 4 -1 -2 -3 -3 -1 -1
-2 -2 -2 -2 -2 -2 -1 -1 -1 -2 -2 -2 -2 -2 -2 -2 -2 -2 -3 -3 -3 -2 -1 -1 -2 -2 -1 -1 0 0 -0 -2 -2 -1 -1 -1 -2 -3 -3 -4 -7 -7 -5 1 1 0 3 14 11 6 3 2 1 1 1 2 1 1 0 0 3 6 5 -1 -3 -4 -2 1 -0
-1 -2 -2 -2 -2 -1 -1 -1 -1 -1 -1 -1 -2 -2 -2 -2 -2 -2 -2 -2 -2 -2 -1 -1 -1 -2 -1 -0 1 2 1 -2 -3 -2 -1 -0 -1 -2 -3 -4 -6 -7 -5 -1 -1 1 6 13 6 2 1 1 1 1 1 2 2 2 1 1 4 6 5 -2 -5 -5 -2 3 1
-1 -1 -2 -2 -1 -1 -0 -0 -1 -1 -1 -1 -1 -1 -1 -0 0 -0 -1 -1 -2 -3 -3 -3 -3 -3 -3 -2 -0 0 -0 -3 -3 -2 -0 1 -0 -2 -3 -4 -6 -7 -6 -4 -5 2 13 19 5 -0 -0 1 2 2 2 3 2 2 1 2 6 7 5 -2 -5 -4 -2 3 3
-1 -1 -1 -1 -0 -0 -0 -0 -0 -1 -1 -1 -1 -0 -0 -0 -1 -1 -1 -1 -2 -2 -2 -3 -3 -4 -4 -3 -2 -2 -2 -3 -3 -2 -1 0 0 -1 -3 -5 -7 -7 -6 -6 -8 6 24 32 5 -2 0 1 2 3 3 4 3 2 1 2 7 8 5 1 1 1 1 2 3
-1 -1 -0 1 1 0 -0 -0 -0 -0 -1 -1 -0 0 1 0 -1 -1 -2 -2 -1 -1 -1 -1 -1 -2 -2 -1 -1 -1 -2 -3 -4 -3 -2 -1 -1 -2 -3 -5 -6 -6 -5 -6 -7 9 33 50 9 -2 1 1 2 3 4 4 3 1 1 4 8 8 8 8 10 9 6 1 0
-0 -0 0 1 1 1 0 -0 -0 -0 -0 -1 -1 -0 1 2 1 1 0 -1 -1 -1 -1 -1 -1 -1 -1 -2 -1 -1 -1 -3 -4 -3 -2 -1 -1 -2 -4 -6 -6 -5 -4 -5 -5 9 33 60 14 -1 0 1 1 3 4 5 3 1 1 3 5 5 6 8 12 13 10 1 -2
1 1 1 1 1 1 1 0 -0 -0 0 0 -1 -1 -0 0 1 1 1 1 -1 -2 -2 -2 -1 -1 -2 -2 -3 -2 -1 -1 -2 -3 -2 -0 -0 -2 -5 -7 -7 -6 -5 -4 -4 8 29 59 17 1 -1 -1 0 2 4 4 3 1 0 1 2 1 -0 -1 5 8 8 2 -2
2 2 2 1 0 0 0 0 -0 -0 0 0 0 0 0 -0 -0 0 1 1 -1 -3 -3 -2 -2 -1 -1 -1 -2 -1 -0 1 0 -1 -2 -1 1 -1 -4 -7 -7 -6 -4 -4 -4 5 24 49 19 4 -1 -2 -1 1 3 4 3 2 0 -1 -0 -1 -2 -4 -1 2 5 4 1
2 2 1 0 -0 -0 -0 0 0 0 0 0 1 1 1 0 -0 0 1 1 -0 -2 -3 -3 -2 -1 -1 -1 -1 -1 -0 1 1 0 -1 -1 1 1 -2 -6 -6 -5 -3 -3 -5 3 17 35 19 9 4 -2 -2 -1 1 2 3 3 2 1 -1 -2 -3 -4 -2 1 4 7 4
1 1 1 0 -0 -0 0 1 1 1 1 1 1 1 1 1 1 1 1 2 1 -0 -2 -3 -2 -2 -1 -1 -1 -1 -1 0 1 1 0 -0 1 2 1 -3 -5 -4 -2 -2 -6 2 14 20 14 12 9 1 -2 -2 -1 1 3 4 4 3 1 -1 -3 -4 -1 2 6 8 6
0 0 1 1 1 1 1 1 1 2 3 2 2 2 1 1 1 1 1 2 2 1 -0 -2 -2 -2 -2 -1 -1 -1 -1 -1 0 1 1 1 1 2 1 -1 -3 -3 -2 -2 -6 3 14 12 7 8 8 3 -1 -2 -1 -0 1 2 3 4 3 1 -1 -1 0 3 6 11 10
0 0 0 1 2 2 1 1 1 2 2 3 3 3 2 1 1 1 1 1 1 1 0 -1 -3 -2 -2 -1 -1 -1 -2 -2 -1 0 1 1 1 1 1 -0 -2 -2 -2 -2 -6 3 12 8 1 2 5 4 2 1 -0 -2 -2 -1 -0 1 2 2 1 1 1 3 7 15 21
Height
1528 1526 1525 1523 1522 1520 1518 1516 1515 1513 1511 1509 1507 1505 1503 1501 1499 1497 1496 1494 1492 1490 1488 1486 1484 1482 1480 1479 1477 1476 1474 1472 1471 1469 1468 1466 1465 1464 1462 1461 1460 1458 1456 1454 1452 1450 1448 1446 1445 1443 1441 1439 1437 1435 1433 1431 1429 1428 1426 1425 1424 1422 1421 1420 1420 1419 1419 1419 1418
1527 1525 1524 1523 1521 1519 1517 1515 1514 1512 1510 1508 1506 1505 1502 1500 1499 1497 1495 1494 1492 1490 1488 1486 1484 1482 1480 1478 1477 1475 1473 1471 1470 1468 1467 1465 1464 1463 1462 1460 1459 1457 1455 1453 1451 1449 1447 1445 1444 1442 1440 1437 1435 1433 1431 1430 1428 1426 1425 1423 1422 1421 1420 1419 1418 1417 1417 1416 1416
1525 1524 1523 1521 1520 1518 1516 1514 1512 1511 1509 1507 1505 1504 1502 1500 1498 1497 1495 1493 1491 1490 1488 1485 1483 1481 1479 1477 1476 1474 1472 1471 1469 1467 1466 1465 1463 1462 1461 1460 1458 1455 1454 1452 1450 1448 1446 1444 1442 1440 1439 1436 1435 1432 1430 1428 1426 1425 1423 1421 1420 1420 1419 1417 1416 1415 1415 1415 1414
1525 1523 1521 1520 1519 1517 1515 1513 1511 1509 1507 1506 1504 1502 1501 1499 1498 1496 1494 1492 1490 1489 1487 1485 1482 1480 1478 1476 1475 1473 1471 1470 1468 1467 1465 1464 1462 1461 1460 1459 1456 1454 1452 1451 1449 1447 1445 1443 1441 1439 1437 1435 1434 1431 1429 1427 1425 1423 1422 1420 1419 1418 1417 1416 1415 1414 1414 1413 1412
1524 1522 1520 1519 1517 1516 1514 1512 1510 1508 1506 1504 1503 1501 1500 1499 1497 1495 1493 1491 1489 1488 1486 1484 1481 1479 1477 1475 1474 1472 1470 1469 1468 1466 1465 1463 1462 1460 1459 1457 1455 1453 1451 1450 1447 1445 1444 1442 1440 1438 1436 1435 1433 1430 1428 1426 1424 1422 1420 1418 1417 1416 1415 1415 1414 1413 1412 1411 1411
1522 1521 1519 1518 1516 1514 1513 1510 1509 1507 1505 1503 1501 1500 1499 1498 1496 1494 1492 1490 1489 1486 1485 1482 1480 1478 1476 1474 1472 1470 1469 1468 1466 1465 1464 1462 1461 1460 1458 1456 1454 1452 1450 1449 1446 1444 1442 1440 1439 1437 1435 1434 1432 1430 1427 1425 1423 1421 1419 1417 1416 1415 1414 1413 1413 1412 1411 1410 1409
1522 1520 1518 1516 1515 1513 1511 1509 1507 1505 1504 1502 1500 1499 1498 1497 1495 1493 1491 1490 1488 1485 1483 1481 1479 1477 1475 1473 1471 1470 1468 1467 1465 1464 1463 1461 1460 1459 1457 1455 1453 1451 1450 1447 1445 1443 1441 1440 1438 1436 1435 1433 1431 1428 1426 1424 1422 1420 1418 1416 1415 1413 1412 1411 1411 1410 1410 1409 1408
1521 1519 1517 1515 1514 1512 1510 1508 1506 1504 1502 1501 1500 1499 1497 1496 1494 1492 1490 1488 1486 1485 1482 1480 1478 1476 1474 1472 1470 1469 1467 1465 1464 1462 1461 1460 1459 1458 1456 1454 1452 1450 1449 1447 1445 1442 1440 1439 1437 1436 1434 1432 1430 1427 1425 1423 1421 1420 1418 1416 1414 1412 1411 1410 1408 1408 1407 1407 1407
1520 1518 1516 1515 1513 1511 1509 1507 1505 1503 1502 1500 1499 1498 1496 1495 1493 1491 1490 1488 1485 1484 1481 1479 1477 1475 1473 1471 1470 1468 1466 1464 1462 1461 1460 1459 1458 1457 1455 1453 1451 1449 1447 1445 1444 1441 1440 1438 1436 1435 1433 1431 1429 1427 1425 1422 1420 1419 1417 1415 1413 1411 1410 1408 1407 1405 1405 1404 1404
1519 1517 1515 1513 1511 1510 1508 1506 1504 1503 1501 1500 1498 1497 1495 1494 1492 1490 1489 1487 1485 1482 1480 1478 1476 1474 1472 1470 1469 1467 1465 1463 1461 1460 1458 1458 1457 1456 1454 1452 1450 1448 1446 1444 1442 1440 1439 1437 1435 1434 1432 1430 1428 1426 1424 1422 1420 1418 1416 1414 1412 1410 1408 1407 1405 1404 1403 1402 1401
1518 1516 1514 1512 1510 1509 1507 1505 1503 1502 1500 1499 1497 1496 1495 1493 1491 1490 1488 1486 1484 1481 1479 1477 1475 1473 1471 1469 1468 1466 1464 1463 1461 1459 1458 1457 1456 1454 1452 1450 1448 1446 1445 1443 1441 1440 1438 1436 1434 1432 1431 1430 1428 1425 1423 1420 1419 1417 1415 1413 1412 1410 1408 1406 1404 1402 1401 1400 1399
1517 1515 1514 1512 1510 1508 1506 1505 1503 1501 1500 1498 1497 1495 1494 1492 1490 1489 1487 1485 1483 1480 1478 1476 1474 1472 1470 1468 1467 1465 1464 1462 1460 1458 1457 1456 1454 1452 1450 1448 1447 1445 1443 1442 1440 1439 1437 1435 1433 1431 1430 1428 1426 1424 1422 1420 1418 1416 1414 1412 1410 1409 1407 1405 1403 1401 1400 1399 1397
1517 1515 1513 1511 1509 1507 1505 1504 1502 1501 1499 1498 1496 1495 1493 1491 1490 1488 1486 1484 1481 1479 1476 1474 1473 1471 1469 1467 1465 1464 1463 1461 1459 1458 1457 1455 1453 1450 1449 1447 1445 1444 1442 1440 1439 1437 1435 1434 1431 1430 1428 1427 1425 1423 1421 1419 1417 1415 1413 1411 1409 1408 1406 1404 1402 1400 1399 1398 1396
1516 1514 1512 1510 1509 1507 1505 1504 1502 1500 1499 1497 1496 1494 1493 1491 1489 1487 1485 1483 1480 1478 1475 1473 1471 1470 1468 1466 1465 1463 1462 1460 1459 1457 1455 1454 1452 1450 1448 1446 1444 1442 1440 1439 1437 1436 1434 1432 1430 1429 1427 1426 1424 1422 1420 1418 1416 1414 1412 1410 1408 1406 1405 1403 1401 1399 1398 1396 1395
1515 1513 1512 1510 1508 1506 1505 1503 1501 1500 1499 1497 1495 1494 1492 1490 1489 1486 1484 1481 1479 1477 1475 1472 1470 1469 1467 1465 1464 1462 1461 1459 1458 1456 1455 1453 1451 1449 1447 1445 1443 1441 1440 1438 1436 1435 1433 1431 1429 1427 1426 1425 1423 1421 1419 1417 1415 1413 1411 1409 1407 1405 1404 1402 1400 1398 1397 1395 1394
1515 1513 1511 1510 1508 1506 1505 1503 1501 1500 1499 1497 1495 1494 1492 1490 1488 1485 1483 1480 1478 1476 1474 1472 1470 1468 1466 1464 1463 1461 1460 1458 1457 1455 1454 1452 1450 1448 1446 1444 1442 1441 1439 1437 1435 1433 1431 1430 1428 1426 1425 1424 1422 1420 1418 1416 1414 1412 1410 1408 1406 1405 1403 1401 1399 1398 1396 1394 1393
1514 1512 1511 1509 1507 1506 1504 1503 1501 1500 1498 1496 1495 1494 1492 1490 1487 1485 1482 1480 1478 1475 1473 1471 1469 1467 1465 1464 1462 1461 1459 1458 1456 1455 1453 1451 1449 1447 1445 1443 1442 1440 1438 1436 1435 1432 1430 1428 1426 1425 1424 1423 1421 1419 1417 1415 1413 1411 1409 1407 1406 1404 1402 1400 1399 1397 1395 1393 1392
1514 1512 1510 1509 1507 1505 1504 1502 1501 1500 1498 1496 1495 1493 1492 1489 1487 1484 1482 1480 1477 1475 1472 1470 1468 1466 1465 1463 1462 1460 1459 1457 1455 1454 1452 1450 1448 1446 1445 1443 1441 1440 1438 1436 1434 1432 1430 1427 1425 1424 1423 1423 1421 1419 1416 1415 1412 1410 1409 1407 1405 1403 1401 1400 1398 1396 1395 1393 1391
1513 1511 1510 1508 1506 1505 1503 1502 1500 1499 1497 1495 1494 1493 1491 1488 1486 1483 1481 1479 1476 1474 1472 1470 1468 1466 1465 1463 1461 1460 1458 1457 1455 1453 1451 1450 1448 1446 1444 1442 1441 1439 1437 1435 1434 1432 1429 1426 1424 1423 1423 1422 1420 1418 1416 1414 1412 1410 1408 1406 1405 1403 1401 1399 1398 1396 1395 1393 1391
1513 1511 1509 1508 1506 1505 1503 1501 1500 1498 1496 1495 1493 1492 1490 1487 1485 1483 1480 1478 1476 1474 1471 1469 1467 1465 1464 1463 1461 1460 1458 1456 1455 1453 1451 1449 1447 1445 1444 1442 1440 1439 1437 1435 1433 1431 1428 1425 1422 1422 1422 1421 1419 1417 1415 1413 1411 1410 1408 1406 1405 1403 1401 1399 1397 1396 1394 1393 1391
1512 1511 1509 1507 1506 1504 1502 1501 1499 1497 1496 1494 1493 1491 1489 1486 1484 1482 1480 1478 1475 1473 1471 1469 1467 1465 1464 1462 1461 1459 1457 1456 1454 1452 1450 1449 1447 1445 1443 1442 1440 1438 1436 1435 1433 1430 1427 1423 1421 1421 1421 1420 1419 1417 1415 1413 1411 1409 1408 1406 1405 1403 1401 1399 1397 1396 1394 1393 1391
1512 1510 1509 1507 1505 1504 1502 1500 1499 1497 1495 1493 1492 1490 1488 1486 1484 1482 1480 1477 1475 1473 1471 1469 1467 1465 1464 1462 1460 1459 1457 1455 1454 1452 1450 1449 1447 1445 1443 1441 1439 1437 1435 1434 1432 1429 1425 1422 1420 1421 1421 1419 1418 1416 1415 1413 1411 1409 1408 1406 1405 1403 1401 1399 1397 1395 1394 1392 1391
1512 1510 1508 1506 1505 1503 1501 1500 1498 1496 1495 1493 1491 1489 1487 1485 1483 1481 1479 1477 1475 1473 1470 1468 1467 1465 1463 1462 1460 1459 1457 1455 1453 1451 1450 1448 1446 1444 1442 1440 1439 1437 1435 1433 1431 1428 1425 1422 1421 1421 1420 1419 1417 1416 1414 1413 1411 1410 1408 1406 1405 1403 1401 1400 1397 1395 1394 1392 1391
1511 1509 1508 1506 1504 1502 1501 1499 1498 1496 1494 1493 1491 1489 1487 1485 1483 1480 1478 1476 1475 1472 1470 1468 1466 1465 1463 1461 1460 1458 1456 1454 1452 1451 1449 1448 1446 1444 1442 1440 1438 1436 1434 1432 1431 1428 1425 1425 1424 1422 1420 1419 1417 1415 1414 1413 1411 1410 1408 1406 1405 1403 1401 1400 1398 1396 1394 1392 1391
1511 1509 1507 1505 1504 1502 1500 1499 1497 1495 1494 1492 1490 1488 1486 1484 1482 1480 1478 1476 1474 1472 1470 1468 1466 1464 1462 1461 1459 1458 1456 1454 1452 1450 1449 1447 1445 1443 1441 1440 1438 1436 1434 1432 1430 1428 1426 1427 1425 1423 1420 1418 1417 1415 1414 1413 1411 1410 1409 1407 1405 1403 1401 1400 1398 1396 1394 1392 1391
1510 1509 1507 1505 1504 1502 1500 1499 1497 1495 1493 1491 1490 1488 1486 1484 1482 1480 1478 1475 1474 1472 1470 1468 1466 1464 1462 1460 1459 1457 1455 1454 1452 1450 1448 1446 1444 1442 1441 1439 1437 1435 1434 1432 1430 1428 1426 1426 1426 1423 1420 1418 1417 1415 1414 1412 1411 1410 1409 1407 1405 1404 1402 1400 1398 1396 1394 1393 1391
1510 1508 1506 1505 1503 1502 1500 1499 1497 1495 1493 1491 1489 1487 1485 1483 1481 1479 1477 1475 1473 1471 1469 1467 1465 1464 1462 1460 1459 1457 1455 1453 1452 1450 1448 1446 1444 1442 1441 1439 1437 1435 1434 1432 1430 1428 1426 1426 1425 1423 1421 1418 1417 1415 1414 1412 1411 1410 1409 1407 1405 1404 1402 1400 1398 1396 1395 1393 1391
1510 1508 1506 1505 1503 1501 1500 1498 1496 1494 1492 1490 1489 1487 1485 1483 1481 1479 1477 1475 1473 1471 1469 1467 1465 1464 1462 1460 1459 1457 1455 1453 1452 1450 1448 1446 1445 1443 1441 1439 1437 1435 1434 1432 1430 1428 1427 1426 1425 1423 1421 1419 1417 1415 1414 1412 1411 1410 1409 1407 1405 1404 1402 1400 1399 1397 1395 1394 1392
1509 1508 1506 1504 1503 1501 1499 1497 1495 1494 1492 1490 1488 1486 1484 1482 1480 1479 1476 1475 1473 1471 1469 1467 1465 1464 1462 1460 1459 1457 1455 1453 1451 1450 1448 1446 1444 1443 1441 1439 1437 1435 1433 1431 1430 1428 1426 1425 1424 1422 1420 1418 1417 1415 1414 1412 1411 1410 1409 1407 1406 1405 1403 1401 1399 1398 1396 1395 1393
1509 1507 1505 1504 1502 1500 1499 1497 1495 1493 1491 1490 1488 1485 1484 1482 1480 1478 1476 1474 1473 1471 1470 1468 1466 1464 1463 1461 1459 1457 1455 1453 1451 1450 1448 1446 1444 1442 1441 1439 1437 1435 1433 1431 1429 1427 1426 1425 1424 1421 1420 1418 1417 1415 1414 1413 1411 1410 1409 1408 1406 1405 1403 1402 1400 1398 1397 1396 1394
1508 1507 1505 1503 1501 1500 1498 1496 1495 1493 1491 1489 1487 1485 1483 1482 1480 1478 1476 1474 1472 1471 1469 1468 1466 1464 1463 1461 1459 1457 1455 1453 1451 1450 1448 1446 1444 1443 1441 1439 1437 1435 1432 1430 1429 1427 1426 1425 1423 1421 1420 1418 1417 1415 1414 1413 1412 1411 1410 1408 1407 1405 1404 1402 1401 1399 1398 1397 1395
1508 1506 1504 1502 1501 1499 1498 1496 1494 1492 1490 1488 1486 1485 1483 1481 1480 1478 1476 1474 1472 1470 1469 1467 1465 1464 1462 1460 1459 1457 1455 1453 1451 1450 1448 1446 1445 1443 1441 1439 1437 1435 1432 1430 1429 1427 1426 1425 1422 1420 1420 1418 1417 1416 1415 1413 1412 1411 1410 1409 1408 1406 1405 1403 1402 1400 1399 1398 1396
1507 1505 1504 1502 1500 1499 1497 1495 1493 1491 1490 1488 1486 1485 1483 1481 1479 1477 1475 1474 1472 1470 1468 1466 1465 1463 1461 1460 1458 1457 1455 1453 1451 1450 1448 1446 1445 1443 1441 1439 1437 1435 1433 1431 1429 1428 1427 1425 1421 1420 1420 1419 1417 1416 1415 1414 1413 1412 1411 1410 1408 1407 1405 1404 1403 1401 1400 1399 1398
1506 1505 1503 1501 1500 1498 1496 1494 1492 1490 1489 1487 1485 1484 1482 1481 1479 1477 1475 1473 1472 1470 1468 1466 1465 1463 1462 1460 1458 1457 1455 1453 1451 1450 1448 1446 1445 1443 1441 1439 1437 1435 1434 1432 1430 1429 1428 1426 1422 1420 1420 1419 1418 1416 1415 1414 1413 1412 1412 1410 1409 1408 1406 1405 1404 1403 1402 1400 1399
1505 1504 1502 1500 1499 1497 1495 1493 1491 1490 1488 1486 1485 1483 1482 1480 1479 1477 1475 1473 1471 1469 1468 1466 1465 1463 1461 1460 1458 1456 1455 1453 1451 1449 1448 1446 1444 1443 1441 1440 1438 1436 1435 1433 1431 1429 1429 1428 1423 1421 1420 1419 1418 1417 1416 1415 1414 1413 1412 1411 1410 1408 1407 1405 1405 1404 1403 1402 1400
1505 1503 1501 1500 1498 1496 1494 1492 1490 1489 1487 1485 1484 1482 1481 1479 1478 1476 1475 1473 1471 1469 1467 1465 1464 1462 1461 1459 1457 1456 1454 1452 1451 1449 1447 1446 1444 1443 1441 1440 1438 1436 1435 1433 1431 1430 1429 1429 1425 1422 1421 1420 1419 1418 1416 1415 1415 1414 1413 1412 1410 1409 1408 1407 1406 1405 1405 1403 1401
1504 1502 1500 1499 1497 1495 1493 1491 1490 1488 1486 1485 1483 1481 1480 1478 1477 1475 1474 1472 1470 1468 1466 1465 1463 1462 1460 1459 1457 1455 1454 1452 1451 1449 1447 1446 1444 1443 1441 1440 1438 1436 1435 1434 1432 1430 1430 1429 1426 1424 1422 1421 1420 1418 1417 1416 1415 1414 1414 1412 1411 1410 1409 1408 1408 1407 1406 1405 1403
1503 1501 1500 1498 1496 1494 1492 1490 1489 1487 1485 1484 1482 1481 1479 1477 1476 1474 1473 1471 1470 1468 1466 1464 1463 1461 1460 1458 1456 1455 1454 1452 1451 1449 1448 1446 1444 1443 1441 1440 1438 1437 1435 1434 1432 1431 1430 1430 1427 1425 1423 1422 1420 1419 1418 1417 1416 1415 1414 1413 1412 1411 1410 1410 1409 1408 1407 1406 1405
1502 1500 1499 1497 1495 1493 1491 1490 1488 1486 1485 1483 1481 1480 1478 1476 1475 1474 1472 1471 1469 1467 1466 1464 1462 1461 1459 1458 1456 1455 1453 1452 1451 1450 1448 1446 1445 1443 1442 1440 1438 1437 1436 1435 1433 1432 1431 1430 1428 1426 1424 1422 1421 1420 1419 1418 1417 1416 1415 1415 1414 1413 1412 1410 1410 1409 1409 1408 1406
1501 1499 1498 1496 1494 1492 1490 1489 1487 1485 1484 1482 1480 1479 1477 1475 1474 1473 1471 1470 1468 1467 1465 1464 1462 1460 1459 1458 1456 1455 1453 1452 1450 1450 1448 1446 1445 1443 1442 1440 1439 1437 1436 1435 1433 1433 1432 1430 1429 1427 1425 1423 1422 1420 1420 1419 1418 1417 1416 1415 1415 1414 1413 1412 1411 1410 1410 1409 1408
1500 1498 1496 1495 1493 1491 1489 1487 1486 1484 1483 1481 1480 1478 1476 1475 1473 1472 1470 1469 1468 1466 1465 1463 1462 1460 1459 1457 1456 1454 1453 1451 1450 1449 1448 1446 1445 1443 1442 1440 1439 1438 1436 1435 1434 1434 1433 1431 1430 1428 1427 1425 1423 1422 1420 1419 1418 1417 1416 1416 1415 1415 1414 1413 1412 1411 1410 1410 1409